Norwood, MA

8:32 PM EDT on June 25, 2017 (GMT -0400)
Norwood Memorial

Weather History for KOWD - August, 2013

Change the Weather History Date:

Friday, August 2, 2013

  Actual Average Record
Temperature  
Mean Temperature 73 °F -  
Max Temperature 84 °F 80 °F 97 °F (2006)
Min Temperature 64 °F 58 °F 48 °F (1998)
Cooling Degree Days 8    
Growing Degree Days 23 (Base 50)    
Moisture  
Dew Point 63 °F    
Average Humidity 79    
Maximum Humidity 96    
Minimum Humidity 44    
Precipitation  
Precipitation 0.25 in - - ()
Sea Level Pressure  
Sea Level Pressure 29.82 in    
Wind  
Wind Speed 2 mph (West)    
Max Wind Speed 13 mph    
Max Gust Speed 21 mph    
Visibility 9 miles    
Events Rain    
Averages and records for this station are not official NWS values.
T = Trace of Precipitation, MM = Missing Value Source: NWS Daily Summary

Daily Weather History Graph

Daily Weather History Graph

Search for Another Location

Airport or City:

Trip Planner

Search our weather history database for the weather conditions in past years. The results will help you decide how hot, cold, wet, or windy it might be!

Date:

Astronomy

Aug. 02, 2013 Rise Set
Actual Time 5:38 AM EDT 8:02 PM EDT
Civil Twilight 5:07 AM EDT 8:33 PM EDT
Nautical Twilight 4:28 AM EDT 9:12 PM EDT
Astronomical Twilight 3:44 AM EDT 9:56 PM EDT
Moon 1:56 AM EDT (8/2) 4:58 PM EDT (8/2)
Length of Visible Light 15h 26m
Length of Day
14h 23m
Waning Crescent, 16% of the Moon is Illuminated
Aug 2
Waning Crescent
Aug 6
New
Aug 14
First Quarter
Aug 20
Full
Aug 28
Last Quarter

Hourly Weather History & Observations

Time (EDT) Temp. Heat Index Dew Point Humidity Pressure Visibility Wind Dir Wind Speed Gust Speed Precip Events Conditions
12:53 AM 66.0 °F - 61.0 °F 84% 29.87 in 10.0 mi Calm Calm - N/A   Overcast
1:53 AM 64.9 °F - 61.0 °F 87% 29.84 in 10.0 mi Calm Calm - N/A   Mostly Cloudy
2:37 AM 64.4 °F - 60.8 °F 88% 29.82 in 10.0 mi Calm Calm - N/A   Overcast
2:53 AM 64.0 °F - 61.0 °F 90% 29.81 in 10.0 mi Calm Calm - N/A   Mostly Cloudy
3:06 AM 64.4 °F - 60.8 °F 88% 29.81 in 10.0 mi Calm Calm - N/A   Mostly Cloudy
3:17 AM 64.4 °F - 60.8 °F 88% 29.81 in 10.0 mi Calm Calm - N/A   Overcast
3:53 AM 64.0 °F - 61.0 °F 90% 29.81 in 10.0 mi Calm Calm - N/A   Overcast
4:05 AM 64.4 °F - 60.8 °F 88% 29.81 in 10.0 mi Calm Calm - N/A   Overcast
4:53 AM 64.9 °F - 62.1 °F 90% 29.81 in 10.0 mi Calm Calm - N/A   Overcast
5:07 AM 64.4 °F - 62.6 °F 94% 29.81 in 1.8 mi Calm Calm - 0.09 in Rain Heavy Rain
5:20 AM 64.4 °F - 62.6 °F 94% 29.81 in 3.0 mi North 3.5 mph - 0.15 in Rain Light Rain
5:53 AM 64.0 °F - 63.0 °F 96% 29.81 in 7.0 mi Calm Calm - 0.16 in   Overcast
6:53 AM 66.0 °F - 64.0 °F 93% 29.82 in 7.0 mi Calm Calm - 0.03 in Rain Light Rain
7:08 AM 66.2 °F - 64.4 °F 94% 29.81 in 1.8 mi Calm Calm - 0.04 in Rain Rain
7:14 AM 66.2 °F - 64.4 °F 94% 29.82 in 3.0 mi Calm Calm - 0.04 in Rain Light Rain
7:22 AM 66.2 °F - 64.4 °F 94% 29.82 in 5.0 mi Calm Calm - 0.04 in Rain Light Rain
7:34 AM 66.2 °F - 64.4 °F 94% 29.82 in 7.0 mi Calm Calm - 0.04 in   Overcast
7:53 AM 66.0 °F - 64.0 °F 93% 29.82 in 9.0 mi Calm Calm - 0.04 in   Overcast
8:53 AM 66.0 °F - 64.0 °F 93% 29.83 in 10.0 mi Calm Calm - 0.01 in   Overcast
9:07 AM 66.2 °F - 64.4 °F 94% 29.83 in 2.5 mi Calm Calm - 0.01 in Rain Light Rain
9:19 AM 68.0 °F - 64.4 °F 88% 29.82 in 5.0 mi Calm Calm - 0.01 in   Overcast
9:40 AM 69.8 °F - 66.2 °F 88% 29.82 in 10.0 mi Calm Calm - 0.01 in   Overcast
9:48 AM 69.8 °F - 66.2 °F 88% 29.82 in 10.0 mi Calm Calm - 0.01 in   Overcast
9:53 AM 70.0 °F - 66.0 °F 87% 29.82 in 10.0 mi West 3.5 mph - 0.01 in   Overcast
10:13 AM 71.6 °F - 66.2 °F 83% 29.82 in 10.0 mi West 3.5 mph - N/A   Mostly Cloudy
10:44 AM 73.4 °F - 66.2 °F 78% 29.82 in 10.0 mi NW 5.8 mph - N/A   Mostly Cloudy
10:53 AM 73.9 °F - 66.0 °F 76% 29.82 in 10.0 mi WNW 5.8 mph - N/A   Mostly Cloudy
11:24 AM 75.2 °F - 64.4 °F 69% 29.82 in 10.0 mi WNW 6.9 mph - N/A   Scattered Clouds
11:31 AM 77.0 °F - 64.4 °F 65% 29.82 in 10.0 mi West 6.9 mph - N/A   Mostly Cloudy
11:53 AM 75.9 °F - 64.9 °F 69% 29.82 in 10.0 mi NW 9.2 mph - N/A   Mostly Cloudy
12:00 PM 78.8 °F - 64.4 °F 61% 29.82 in 10.0 mi West 8.1 mph - N/A   Scattered Clouds
12:53 PM 81.0 °F 82.5 °F 64.0 °F 56% 29.81 in 10.0 mi West 8.1 mph - N/A   Scattered Clouds
1:53 PM 82.0 °F 83.0 °F 62.1 °F 51% 29.81 in 10.0 mi WNW 8.1 mph - N/A   Mostly Cloudy
2:53 PM 82.9 °F 82.8 °F 59.0 °F 44% 29.80 in 10.0 mi WSW 12.7 mph 18.4 mph N/A   Mostly Cloudy
3:53 PM 82.9 °F 82.8 °F 59.0 °F 44% 29.80 in 10.0 mi West 10.4 mph - N/A   Mostly Cloudy
4:53 PM 82.0 °F 82.0 °F 57.9 °F 44% 29.80 in 10.0 mi West 10.4 mph 20.7 mph N/A   Partly Cloudy
5:53 PM 81.0 °F 81.0 °F 57.0 °F 44% 29.81 in 10.0 mi WSW 10.4 mph - N/A   Clear
6:53 PM 80.1 °F 80.6 °F 57.9 °F 47% 29.82 in 10.0 mi WSW 8.1 mph - N/A   Clear
7:53 PM 77.0 °F - 60.1 °F 56% 29.83 in 10.0 mi SSW 3.5 mph - N/A   Clear
8:53 PM 69.1 °F - 61.0 °F 75% 29.85 in 9.0 mi Calm Calm - N/A   Clear
9:53 PM 66.0 °F - 61.0 °F 84% 29.86 in 10.0 mi Calm Calm - N/A   Clear
10:53 PM 66.9 °F - 62.1 °F 84% 29.87 in 10.0 mi Calm Calm - N/A   Scattered Clouds
11:53 PM 71.1 °F - 62.1 °F 73% 29.87 in 10.0 mi SW 4.6 mph - N/A   Overcast